Weather in Pronkino

Russia / Jewish Autonomous Oblast     48°36′55″N   132°59′07″E
temp.,
°C
wind,
m/s
gust,
m/s
humid.,
%
clouds,
%
prec.,
mm/h
press.,
hPa
HPBL,
m
27 july, tue
tue2701:00+25s1171100 0.0 100215
04:00+24wsw1171100 0.0 100317
07:00+24wnw1177100 0.0 100324
10:00+29wsw116088 0.0 1004488
13:00+32wsw2449100 0.0 10031624
16:00+33wnw344618 0.0 10021731
19:00+30nnw1166100 0.0 100130
22:00+25n2278100 0.0 100318
28 july, wed
wed2801:00+24ne118176 0.0 100211
04:00+23n118325 0.0 100313
07:00+24nne22840 0.0 100368
10:00+29ese12634 0.0 1003531
13:00+34ssw13485 0.0 10021258
16:00+36ne134251 0.0 10001790
19:00+34nne00585 0.0 99982
22:00+28sse117049 0.0 100014
29 july, thu
thu2901:00+25n227899 0.1 100041
04:00+23nnw229136 1.1 100026
07:00+24n1190100 0.4 100049
10:00+28wnw1171100 0.5 1000430
13:00+31wsw2356100 0.0 9991025
16:00+33w4543100 0.0 9981497
19:00+30w375689 0.0 997364
22:00+26w246291 0.0 99891
30 july, fri
fri3001:00+23wsw1175100 0.0 99818
04:00+22w1178100 0.0 99719
07:00+23w127982 0.0 99745
10:00+26w236972 0.0 998303
13:00+31w44455 0.0 9971521
16:00+31wsw344631 0.0 996866
19:00+30w37535 0.0 995384
22:00+23nne368123 0.0 998136
31 july, sat
sat3101:00+20nne1298100 0.9 99990
04:00+19ene2399100 2.3 999142
07:00+18ese1297100 0.0 1001166
10:00+20sse2385100 0.0 1001531
13:00+23ne336994 0.1 1002935
16:00+25ene456199 0.1 1003851
19:00+20e6968100 0.0 1007699
22:00+16e51173100 0.0 1010683